Location: Little Elm
(33.1626°N, 96.9375°W)
Time: 08:04:55
(UTC+00:00)

Okean 1 - Pass Details

Date: 08 December 2021
Orbit: 537 x 553 km, 82.5° (Epoch: 17 January)

Event Time Altitude Azimuth Distance (km) Brightness Sun altitude
Rises 12:38:03 0° 358° (N) 2,695 6.6 -8.6°
Reaches altitude 10° 12:40:14 10° 3° (N) 1,799 5.8 -8.2°
Maximum altitude 12:44:08 57° 82° (E) 635 4.0 -7.5°
Drops below altitude 10° 12:48:00 10° 162° (SSE) 1,787 6.6 -6.7°
Sets 12:50:10 0° 166° (SSE) 2,675 7.4 -6.3°
